Weather History for LIRZ - September, 2013

Change the Weather History Date:

Sunday, September 22, 2013

  Actual Average Record
Temperature  
Mean Temperature 67 °F -  
Max Temperature 75 °F 68 °F 84 °F (2003)
Min Temperature 55 °F 50 °F 42 °F (2007)
Cooling Degree Days 2    
Growing Degree Days 17 (Base 50)    
Moisture  
Dew Point 47 °F    
Average Humidity 50    
Maximum Humidity 77    
Minimum Humidity 34    
Precipitation  
Precipitation 0.00 in 0.10 in - ()
Sea Level Pressure  
Sea Level Pressure 30.22 in    
Wind  
Wind Speed 10 mph ()    
Max Wind Speed 16 mph    
Max Gust Speed -    
Visibility 6.2 miles    
Events      
Averages and records for this station are not official NWS values.
T = Trace of Precipitation, MM = Missing Value Source: Averaged Metar Reports

Daily Weather History Graph

Daily Weather History Graph

Search for Another Location

Airport or City:

Trip Planner

Search our weather history database for the weather conditions in past years. The results will help you decide how hot, cold, wet, or windy it might be!

Date:

Astronomy

Sep. 22, 2013 Rise Set
Actual Time 6:57 AM CEST 7:07 PM CEST
Civil Twilight 6:28 AM CEST 7:35 PM CEST
Nautical Twilight 5:55 AM CEST 8:08 PM CEST
Astronomical Twilight 5:21 AM CEST 8:42 PM CEST
Moon 8:39 PM CEST (9/22) 10:05 AM CEST (9/22)
Length of Visible Light 13h 06m
Length of Day
12h 10m
Waning Gibbous, 90% of the Moon is Illuminated
Sep 22
Waning Gibbous
Sep 27
Last Quarter
Oct 5
New
Oct 12
First Quarter
Oct 19
Full

Hourly Weather History & Observations

Time (CEST) Temp. Dew Point Humidity Pressure Visibility Wind Dir Wind Speed Gust Speed Precip Events Conditions
6:06 AM 62.6 °F 50.0 °F 63% 30.21 in - NE 10.4 mph - N/A   Clear
6:50 AM 59.0 °F 51.8 °F 77% 30.24 in - NE 16.1 mph - N/A   Clear
7:50 AM 59.0 °F 51.8 °F 77% 30.24 in - NNE 11.5 mph - N/A   Clear
8:50 AM 66.2 °F 50.0 °F 56% 30.24 in - NNE 10.4 mph - N/A   Clear
9:50 AM 69.8 °F 50.0 °F 49% 30.24 in - NNE 15.0 mph - N/A   Clear
10:50 AM 71.6 °F 46.4 °F 41% 30.24 in - ENE 12.7 mph - N/A   Clear
11:50 AM 73.4 °F 44.6 °F 36% 30.24 in 6.2 mi ENE 10.4 mph - N/A   Partly Cloudy
12:50 PM 75.2 °F 44.6 °F 34% 30.24 in 6.2 mi NE 11.5 mph - N/A   Partly Cloudy
1:50 PM 73.4 °F 44.6 °F 36% 30.24 in 6.2 mi NE 12.7 mph - N/A   Scattered Clouds
2:50 PM 71.6 °F 46.4 °F 41% 30.24 in 6.2 mi NE 11.5 mph - N/A   Scattered Clouds
3:50 PM 75.2 °F 44.6 °F 34% 30.21 in 6.2 mi NE 15.0 mph - N/A   Partly Cloudy
4:50 PM 73.4 °F 46.4 °F 38% 30.21 in 6.2 mi NE 11.5 mph - N/A   Partly Cloudy
5:50 PM 73.4 °F 44.6 °F 36% 30.21 in 6.2 mi NE 16.1 mph - N/A   Partly Cloudy
6:50 PM 69.8 °F 44.6 °F 40% 30.21 in - NE 12.7 mph - N/A   Clear
7:50 PM 66.2 °F 44.6 °F 46% 30.21 in - NE 10.4 mph - N/A   Clear
8:50 PM 64.4 °F 46.4 °F 52% 30.21 in - NNE 4.6 mph - N/A   Clear
9:50 PM 62.6 °F 46.4 °F 55% 30.21 in - NNE 6.9 mph - N/A   Clear
10:50 PM 59.0 °F 48.2 °F 67% 30.21 in - North 8.1 mph - N/A   Clear
11:50 PM 55.4 °F 46.4 °F 72% 30.21 in - NNE 4.6 mph - N/A   Clear